Regional Weather Roundup
Issued by NWS Kansas City/Pleasant Hill, MO

Home | Current Version | Previous Version | Graphics & Text | Print | Product List | Glossary Off
Versions: 1 2 3 4 5 6 7 8 9 10 11 12 13 14 15 16 17 18 19 20 21 22 23 24 25 26 27 28 29 30 31 32 33 34 35 36 37 38 39 40 41 42 43 44 45 46 47 48 49 50

000
ASUS43 KEAX 141410
RWREAX

WEATHER ROUNDUP FOR EASTERN KANSAS AND NORTHWEST MISSOURI
NATIONAL WEATHER SERVICE KANSAS CITY/PLEASANT HILL MO
800 AM CST THU DEC 14 2017

KSZ040-057-103>105-MOZ028-029-037-043-141500-
...KANSAS CITY METROPOLITAN AREA...

CITY           SKY/WX    TMP DP  RH WIND       PRES   REMARKS
K.C. INTL      CLOUDY    35  24  64 N3        30.06R
K.C. DOWNTOWN  CLOUDY    37  23  56 N3        30.07R
LEES SUMMIT    CLOUDY    36  23  59 N7        30.07R WCI  30
OLATHE - IXD   CLOUDY    35  28  75 NW5       30.08R WCI  31
OLATHE - OJC   CLOUDY    36  23  59 N5        30.06R WCI  32
LAWRENCE       CLOUDY    36  27  69 NW5       30.08R WCI  32

$$

MOZ001>008-011>017-020>025-030>033-038>040-044>046-053-054-141500-
...NORTHERN AND CENTRAL MISSOURI...

CITY           SKY/WX    TMP DP  RH WIND       PRES   REMARKS
ST. JOSEPH     CLOUDY    34  27  75 NW3       30.08R
MOSBY          CLOUDY    34  25  69 CALM      30.08R
WARRENSBURG    CLOUDY    32  23  69 N6        30.07R WCI  26
WHITEMAN AFB   MOCLDY    32  22  65 N8        30.02R WCI  25
CLINTON        CLOUDY    32  25  74 CALM      30.07R
SEDALIA        PTCLDY    30  22  72 N9        30.07R WCI  22
WARSAW         NOT AVBL
CHILLICOTHE      N/A     29  20  69 CALM      30.09R
KIRKSVILLE     CLOUDY    27  24  89 N7        30.06R WCI  19

$$

MOZ041-047>049-056>058-063>065-088>090-097-141500-
...EASTERN AND SOUTHERN MISSOURI...

CITY           SKY/WX    TMP DP  RH WIND       PRES   REMARKS
ST. LOUIS INTL CLOUDY    30  19  63 N8        30.05R WCI  22
SPIRIT OF STL  CLOUDY    31  20  63 NE9       30.05R WCI  23
COLUMBIA       CLOUDY    32  23  69 N6        30.04R WCI  26
JEFFERSON CITY CLOUDY    34  22  61 CALM      30.05R
ROLLA          CLOUDY    32  22  66 NW6       30.01R WCI  26
OSAGE BEACH    CLEAR     32  21  64 N6        30.05R WCI  26
SPRINGFIELD    CLOUDY    35  27  72 N10       30.03R WCI  27
BRANSON        CLOUDY    34  27  75 NW5       30.04R WCI  30
JOPLIN         CLOUDY    31  28  89 CALM      30.08R
WEST PLAINS    CLOUDY    32  23  69 NW5       30.01R WCI  27

$$

IAZ060-094-KSZ022-034>040-054-083-096-NEZ052-066-093-141500-
...KANSAS...SOUTHEAST NEBRASKA AND IOWA...

CITY           SKY/WX    TMP DP  RH WIND       PRES   REMARKS
TOPEKA         CLOUDY    36  29  75 CALM      30.08R
MANHATTAN      CLOUDY    33  26  75 W5        30.10R WCI  29
EMPORIA        CLOUDY    34  26  72 W7        30.09R WCI  28
CHANUTE        CLOUDY    32  27  81 NW5       30.09R WCI  27
WICHITA        MOCLDY    36  27  69 N10       30.11S WCI  28
OMAHA          CLOUDY    34  26  72 CALM      30.06R
LINCOLN        CLOUDY    36  26  67 NW5       30.08R WCI  32
FALLS CITY     CLOUDY    34  25  69 NW6       30.07R WCI  29
LAMONI         CLOUDY    28  19  69 N6        30.05R WCI  22
DES MOINES     CLOUDY    26  17  68 NE6       30.07R WCI  19

$$




USA.gov is the U.S. government's official web portal to all federal, state and local government web resources and services.